Location: Arthez
(43.0833°N, 0.2500°W)
Time: 00:32:14
(UTC+00:00)

Cosmos 1408 - Pass Details

Date: 23 October 2021
Orbit: 465 x 490 km, 82.6° (Epoch: 15 November)

Event Time Altitude Azimuth Distance (km) Brightness Sun altitude
Rises 17:56:38 0° 11° (N) 2,533 6.0 -10.0°
Reaches altitude 10° 17:59:37 10° 38° (NE) 1,643 4.8 -10.5°
Enters shadow 18:00:46 13° 57° (ENE) 1,457 4.4 -10.7°
